Hourly Weather Roundup
Issued by NWS Central Illinois

Home | Current Version | Previous Version | Text Only | Print | Product List | Glossary On
Versions: 1 2 3 4 5 6 7 8 9 10 11 12 13 14 15 16 17 18 19 20 21 22 23 24 25 26 27 28 29 30 31 32 33 34 35 36 37 38 39 40 41 42 43 44 45 46 47 48 49 50
000
NZUS43 KILX 202010
HWRILX

AREA WEATHER ROUNDUP
NATIONAL WEATHER SERVICE, LINCOLN IL
300 PM CDT SUN APR 20 2014


CITY           SKY/WX    TMP DP  RH WIND       PRES   REMARKS
BLOOMINGTON    SUNNY     78  41  26 S10G21    30.12F
CHAMPAIGN      SUNNY     78  38  23 S10G20    30.14F
DANVILLE       MOSUNNY   76  38  25 SW8       30.12F
DECATUR        SUNNY     77  42  28 SW9       30.13F
FLORA          NOT AVBL
GALESBURG      SUNNY     80  49  33 SW9G22    30.06F
JACKSONVILLE   MOSUNNY   80  42  25 S12       30.10F
LACON          SUNNY     79  44  29 SW13      30.08F
LAWRENCEVILLE  CLOUDY    75  41  29 CALM      30.16F
LITCHFIELD     SUNNY     76  46  34 CALM      30.13F
$$


CITY           SKY/WX    TMP DP  RH WIND       PRES   REMARKS
LINCOLN        SUNNY     81  39  22 SW5       30.08F
MACOMB         SUNNY     81  44  26 S10G23    30.09F HX  80
MATTOON        MOSUNNY   73  44  35 S8        30.15F
MT CARMEL AP   PTSUNNY   77  36  22 SW8       30.16F
OLNEY-NOBLE AP MOSUNNY   73  43  33 SE7       30.15F
PARIS          PTSUNNY   76  41  29 S9        30.16F
PEORIA         SUNNY     80  43  26 SW7G17    30.08F
PONTIAC        MOSUNNY   81  37  21 S8        30.11F
RANTOUL        SUNNY     78  32  19 CALM      30.14F
ROBINSON       CLOUDY    77  43  30 S5        30.16F
SPRINGFIELD    SUNNY     81  40  23 S10       30.11F
TAYLORVILLE    SUNNY     75  41  29 S6        30.12F
$$

...REGIONAL REPORTS...


CITY           SKY/WX    TMP DP  RH WIND       PRES   REMARKS
CHICAGO O`HARE PTSUNNY   77  40  26 SW10      30.10F
KANKAKEE       PTSUNNY   77  44  30 S10G17    30.14S
MOLINE         SUNNY     82  44  26 SW14G24   30.04F HX  80
MOUNT VERNON   SUNNY     77  45  31 W3        30.16F
PITTSFIELD     SUNNY     80  44  28 SW12G17   30.09F
QUINCY         MOSUNNY   80  49  33 S8G18     30.07F
ROCKFORD       MOSUNNY   80  41  24 SW12G21   30.08F
$$


CITY           SKY/WX    TMP DP  RH WIND       PRES   REMARKS
BURLINGTON     SUNNY     80  47  31 SW12G23   30.05F
CEDAR RAPIDS   PTSUNNY   80  47  31 SW17G23   30.01F
DES MOINES     PTSUNNY   82  52  35 SW15G26   29.98F HX  81
KIRKSVILLE     MOSUNNY   79  48  33 S12G23    30.06F
OTTUMWA        PTSUNNY   81  47  30 S14G24    30.01F HX  80
ST LOUIS       PTSUNNY   81  42  25 S12       30.10F
$$


CITY           SKY/WX    TMP DP  RH WIND       PRES   REMARKS
TERRE HAUTE    PTSUNNY   72  41  32 MISG      30.16F
EVANSVILLE     CLOUDY    75  36  24 VRB3      30.16F
INDIANAPOLIS   MOSUNNY   73  33  23 VRB3      30.16F
LAFAYETTE      MOSUNNY   74  36  25 NW6       30.14F
MADISON        CLOUDY    77  43  29 SW3       30.06F
MILWAUKEE      PTSUNNY   71  41  33 SE14      30.09F
$$





USA.gov is the U.S. government's official web portal to all federal, state and local government web resources and services.